Cloud_Cover
51 61 100 100 100 100 100 100 100 100 100 100 100 100 100 100 100 100 100 100 100 100 100 100 75 47 100 100 100 100 95 100 97 100 100 56 6 48 59 82 100 98 100 100
100 36 73 99 100 100 100 100 100 100 100 100 100 100 100 100 100 94 88 100 100 100 100 100 88 35 86 62 100 100 100 100 99 67 12 44 7 5 35 94 82 71 99 5
100 100 100 57 10 100 100 100 100 100 98 100 100 100 100 100 100 100 99 100 100 100 100 100 100 100 100 100 100 100 100 100 49 32 60 41 9 5 6 64 7 5 5 5
99 100 100 21 6 5 100 100 100 100 100 100 100 100 100 100 100 100 100 100 100 100 100 100 100 100 100 100 100 100 100 99 78 61 40 6 5 5 5 5 5 5 5 5
100 100 100 10 6 73 100 100 100 100 100 98 100 100 100 100 100 100 100 100 100 100 100 100 100 100 100 100 100 100 100 99 98 100 12 5 5 5 5 5 5 5 5 5
100 100 15 4 74 100 100 73 77 62 91 78 96 100 100 100 100 100 100 100 100 100 100 100 100 100 100 100 100 100 100 100 100 96 5 11 52 7 5 4 5 5 5 5
100 100 39 5 31 97 100 98 95 46 14 15 63 65 69 99 100 100 100 100 100 100 100 100 100 100 100 100 100 100 86 66 11 16 70 100 90 16 5 1 5 5 5 5
100 100 69 86 88 88 93 100 100 91 100 47 34 57 94 61 100 100 100 100 100 100 100 100 100 100 100 100 100 85 6 5 75 100 100 99 41 5 0 1 5 5 5 5
100 56 28 88 100 100 100 34 90 100 100 100 100 100 100 99 100 100 100 100 100 100 100 100 100 100 100 100 50 5 60 95 100 100 73 41 5 5 4 5 5 33 25 27
36 5 43 100 100 86 100 100 100 100 100 100 100 100 100 100 100 100 100 100 100 100 100 100 100 100 98 73 70 94 100 100 100 89 12 5 5 5 5 47 61 60 69 80
5 7 6 100 100 61 19 13 100 100 100 100 95 100 100 7 99 100 100 100 100 100 100 99 100 98 76 82 100 100 100 95 56 5 5 5 5 5 46 7 41 73 97 66
5 15 9 18 41 86 42 18 93 100 95 92 100 95 93 94 100 100 100 100 100 100 100 100 100 99 100 100 100 100 75 32 5 5 5 5 16 12 27 96 100 100 100 34
2 5 33 6 96 100 100 100 100 89 100 100 100 100 100 100 100 100 100 100 100 100 99 100 100 100 100 100 95 40 4 1 5 5 5 5 5 5 5 5 5 23 99 11
5 5 24 94 100 100 100 89 82 100 100 100 100 100 100 100 100 100 100 100 100 100 100 100 100 100 100 24 5 5 5 5 5 5 5 5 5 5 16 5 5 5 7 5
5 26 87 78 100 100 90 84 100 100 95 67 100 100 100 100 100 100 100 100 100 100 100 100 79 51 5 5 5 5 5 24 27 5 5 17 17 7 5 5 5 5 5 5
98 100 100 82 100 100 93 100 100 100 100 100 100 100 100 100 100 100 100 100 100 66 64 61 79 16 5 5 5 5 5 5 5 11 60 61 38 46 35 5 5 5 5 19
100 71 80 100 100 100 100 100 99 100 100 100 100 100 100 100 100 100 63 27 5 5 7 24 42 54 5 45 30 35 5 5 5 53 73 83 82 46 5 5 5 5 5 22
86 100 100 100 97 100 100 100 100 100 100 100 100 100 99 99 61 52 78 50 22 75 60 5 5 5 5 5 28 82 18 5 32 60 38 6 5 5 5 5 5 5 16 8
100 100 100 100 100 100 100 100 100 100 100 100 98 100 97 69 46 84 60 49 52 98 71 5 5 5 2 3 5 5 5 5 5 5 14 31 52 60 42 37 6 8 46 40
100 100 100 79 100 100 100 100 100 100 92 98 81 81 61 88 60 70 8 47 58 18 5 5 5 5 5 5 5 5 7 40 60 47 45 56 39 22 67 33 20 21 61 60
100 100 100 100 100 100 100 100 100 91 91 100 60 65 63 66 6 5 55 84 12 18 45 33 28 16 81 74 65 96 91 95 88 95 73 75 69 60 69 58 30 17 60 62
100 100 100 100 100 100 89 88 95 67 80 77 42 36 57 88 59 19 5 28 27 33 5 82 100 53 85 91 78 93 95 94 75 65 80 67 72 54 48 51 43 35 55 59
100 100 100 100 100 100 90 98 100 95 92 96 23 42 58 50 48 93 94 99 100 100 100 100 100 87 73 93 99 100 99 97 72 66 83 51 65 47 56 45 85 76 60 23
100 100 100 100 98 100 91 100 75 80 66 5 5 40 87 98 100 100 100 100 100 100 100 100 100 100 100 100 97 75 86 99 97 79 98 88 75 79 64 59 79 58 19 72
98 99 100 97 100 100 100 100 100 100 65 78 95 100 100 100 100 100 100 100 100 100 100 100 100 100 100 100 100 100 100 100 100 100 100 97 98 100 92 77 34 29 58 59
98 97 91 100 100 100 100 94 96 98 72 99 97 100 100 100 100 100 100 100 100 100 100 100 100 100 100 100 100 100 100 100 100 100 100 100 100 89 71 61 31 51 55 52
93 93 100 100 100 100 94 100 100 100 96 92 100 100 100 100 100 100 100 100 100 100 100 100 100 100 100 100 100 100 100 100 100 100 100 100 61 51 63 58 55 53 53 97